This is the latest recevied weather packets stored in our database for station/object LX1CU-13. If no packets are shown the sender has not sent any weather packets the latest 1 day(s).
| Time | Temp. | Humidity | Pressure | Rain* | Wind** | Luminosity | Snow |
|---|---|---|---|---|---|---|---|
| 1777982913 | 17.78° C | 69% | 1004 hPa | 0 mm | 0 m/s | - | - |
| 1777982613 | 17.22° C | 69% | 1004.1 hPa | 0 mm | 0 m/s | - | - |
| 1777982313 | 17.22° C | 69% | 1004 hPa | 0 mm | 0 m/s | - | - |
| 1777982013 | 17.22° C | 68% | 1004.1 hPa | 0 mm | 0 m/s | - | - |
| 1777981713 | 17.78° C | 66% | 1004.1 hPa | 0 mm | 0 m/s | - | - |
| 1777981413 | 18.33° C | 66% | 1004.1 hPa | 0 mm | 0 m/s | - | - |
| 1777981113 | 18.89° C | 65% | 1004.2 hPa | 0 mm | 0 m/s | - | - |
| 1777980813 | 19.44° C | 64% | 1004.2 hPa | 0 mm | 0 m/s | - | - |
| 1777980513 | 19.44° C | 64% | 1004.2 hPa | 0 mm | 0 m/s | - | - |
| 1777980213 | 19.44° C | 64% | 1004.2 hPa | 0 mm | 0 m/s | - | - |
| 1777979913 | 20° C | 64% | 1004.4 hPa | 0 mm | 0 m/s | - | - |
| 1777979613 | 19.44° C | 64% | 1004.3 hPa | 0 mm | 0 m/s | - | - |
| 1777979313 | 19.44° C | 64% | 1004.3 hPa | 0 mm | 0 m/s | - | - |
| 1777979013 | 19.44° C | 64% | 1004.4 hPa | 0 mm | 0 m/s | - | - |
| 1777978713 | 19.44° C | 64% | 1004.5 hPa | 0 mm | 0 m/s | - | - |
| 1777978413 | 19.44° C | 63% | 1004.5 hPa | 0 mm | 0 m/s | - | - |
| 1777978113 | 20° C | 64% | 1004.5 hPa | 0 mm | 0 m/s | - | - |
| 1777977813 | 20° C | 64% | 1004.5 hPa | 0 mm | 0 m/s | - | - |
| 1777977513 | 20° C | 64% | 1004.7 hPa | 0 mm | 0 m/s | - | - |
| 1777977213 | 20° C | 64% | 1004.6 hPa | 0 mm | 0 m/s | - | - |
| 1777976913 | 20° C | 64% | 1004.7 hPa | 0 mm | 0 m/s | - | - |
| 1777976613 | 19.44° C | 64% | 1004.7 hPa | 0 mm | 0 m/s | - | - |
| 1777976313 | 19.44° C | 64% | 1004.7 hPa | 0 mm | 0 m/s | - | - |
| 1777976013 | 19.44° C | 64% | 1004.8 hPa | 0 mm | 0 m/s | - | - |
| 1777975783 | 20° C | 63% | 1004.9 hPa | 0 mm | 0 m/s | - | - |
* Rain latest hour (hover to see other rain measurements)
** Current wind speed in m/s (hover to see current wind gust speed)